Weather History for Wichita, KS

Change the Weather History Date:

Sunday, May 12, 2013

  Actual Average Record
Temperature  
Mean Temperature 55 °F 65 °F  
Max Temperature 70 °F 75 °F 92 °F (1956)
Min Temperature 40 °F 54 °F 38 °F (1960)
Degree Days  
Heating Degree Days 10 3  
Month to date heating degree days 116 47  
Since 1 July heating degree days 4474 4555  
Cooling Degree Days 0 3  
Month to date cooling degree days 3 24  
Year to date cooling degree days 19 50  
Growing Degree Days 4 (Base 50)    
Moisture  
Dew Point 41 °F    
Average Humidity 65    
Maximum Humidity 92    
Minimum Humidity 37    
Precipitation  
Precipitation 0.00 in 0.15 in 1.82 in (1935)
Month to date precipitation 1.95 1.63  
Year to date precipitation 10.55 8.92  
Snow  
Snow 0.00 in 0.00 in T in (2010)
Month to date snowfall T 0.0  
Since 1 July snowfall 30.0 14.9  
Snow Depth 0.00 in    
Sea Level Pressure  
Sea Level Pressure 30.19 in    
Wind  
Wind Speed 10 mph (SE)    
Max Wind Speed 21 mph    
Max Gust Speed 28 mph    
Visibility 10 miles    
Events Thunderstorm    
T = Trace of Precipitation, MM = Missing Value Source: NWS Daily Summary

Daily Weather History Graph

Daily Weather History Graph

Search for Another Location

Airport:

Trip Planner

Search our weather history database for the weather conditions in past years. The results will help you decide how hot, cold, wet, or windy it might be!

Date:

Astronomy

May. 12, 2013 Rise Set
Actual Time 6:22 AM CDT 8:30 PM CDT
Civil Twilight 5:53 AM CDT 8:59 PM CDT
Nautical Twilight 5:17 AM CDT 9:34 PM CDT
Astronomical Twilight 4:39 AM CDT 10:13 PM CDT
Moon 8:19 AM CDT (5/12) 10:57 PM CDT (5/12)
Length of Visible Light 15h 05m
Length of Day
14h 07m
Waxing Crescent, 7% of the Moon is Illuminated
May 12
Waxing Crescent
May 17
First Quarter
May 24
Full
May 31
Last Quarter
Jun 8
New

Hourly Weather History & Observations

Time (CDT) Temp. Windchill Dew Point Humidity Pressure Visibility Wind Dir Wind Speed Gust Speed Precip Events Conditions
12:53 AM 45.0 °F - 39.9 °F 82% 30.27 in 10.0 mi Calm Calm - N/A   Clear
1:53 AM 46.0 °F - 42.1 °F 86% 30.26 in 10.0 mi Calm Calm - N/A   Clear
2:53 AM 45.0 °F - 42.1 °F 90% 30.24 in 10.0 mi Calm Calm - N/A   Clear
3:53 AM 42.1 °F 40.2 °F 39.0 °F 89% 30.23 in 10.0 mi SSE 3.5 mph - N/A   Clear
4:53 AM 46.9 °F - 39.0 °F 74% 30.24 in 10.0 mi Calm Calm - N/A   Partly Cloudy
5:53 AM 44.1 °F 41.5 °F 37.0 °F 76% 30.25 in 10.0 mi East 4.6 mph - N/A   Scattered Clouds
6:53 AM 45.0 °F 42.6 °F 35.1 °F 68% 30.25 in 10.0 mi ESE 4.6 mph - N/A   Scattered Clouds
7:53 AM 48.9 °F - 37.9 °F 66% 30.28 in 10.0 mi SE 4.6 mph - N/A   Scattered Clouds
8:53 AM 52.0 °F - 36.0 °F 54% 30.28 in 10.0 mi SSE 6.9 mph - N/A   Mostly Cloudy
9:53 AM 55.0 °F - 34.0 °F 45% 30.29 in 10.0 mi ESE 5.8 mph - N/A   Mostly Cloudy
10:53 AM 60.1 °F - 37.0 °F 42% 30.26 in 10.0 mi SE 11.5 mph - N/A   Mostly Cloudy
11:53 AM 64.0 °F - 37.0 °F 37% 30.23 in 10.0 mi SSE 15.0 mph 20.7 mph N/A   Scattered Clouds
12:14 PM 64.4 °F - 39.2 °F 40% 30.22 in 10.0 mi SSE 15.0 mph - N/A Thunderstorm Thunderstorm
12:28 PM 64.4 °F - 37.4 °F 37% 30.21 in 10.0 mi SSE 16.1 mph - N/A   Mostly Cloudy
12:53 PM 62.1 °F - 39.9 °F 44% 30.21 in 10.0 mi South 15.0 mph - N/A   Scattered Clouds
1:53 PM 64.9 °F - 43.0 °F 45% 30.20 in 10.0 mi SSE 12.7 mph 18.4 mph N/A   Scattered Clouds
2:53 PM 66.0 °F - 43.0 °F 43% 30.19 in 10.0 mi SSE 13.8 mph 19.6 mph N/A   Scattered Clouds
3:53 PM 68.0 °F - 45.0 °F 43% 30.15 in 10.0 mi South 17.3 mph 27.6 mph N/A   Partly Cloudy
4:53 PM 70.0 °F - 44.1 °F 39% 30.12 in 10.0 mi SSE 17.3 mph - N/A   Scattered Clouds
5:53 PM 69.1 °F - 45.0 °F 42% 30.10 in 10.0 mi SSE 15.0 mph 23.0 mph N/A   Partly Cloudy
6:53 PM 68.0 °F - 44.1 °F 42% 30.08 in 10.0 mi SE 16.1 mph - N/A   Partly Cloudy
7:53 PM 66.0 °F - 44.1 °F 45% 30.07 in 10.0 mi SE 11.5 mph - N/A   Partly Cloudy
8:53 PM 62.1 °F - 46.0 °F 56% 30.08 in 10.0 mi ESE 12.7 mph - N/A   Clear
9:53 PM 60.1 °F - 44.1 °F 55% 30.09 in 10.0 mi ESE 11.5 mph - N/A   Clear
10:53 PM 57.9 °F - 44.1 °F 60% 30.09 in 10.0 mi SE 13.8 mph - N/A   Partly Cloudy
11:53 PM 55.9 °F - 44.1 °F 64% 30.09 in 10.0 mi ESE 10.4 mph - N/A   Scattered Clouds